Starlink 32169

operational
NORAD ID: 60589 Int'l Des: 2024-150 Owner: SPXS Country: US Constellation: starlink
LEOCIRCULAR

Über Starlink 32169

Beschreibung wird geladen...

Live-Position

3D-Globus wird geladen...

Nächste Überflüge

Höhenverlauf

Altitude vs Time

uPlot chart will show altitude changes over time

Zweizeiliger Elementsatz

1 60589U 24150G 25352.42089861 .00000116 00000-0 16049-4 0 9997
2 60589 53.1615 324.8772 0001130 88.4165 271.6965 15.30202072 75595
Epoch: 18. Dez. 2025 • Age: 20 hours

Aktueller Status

Höhe 487.4 km
Geschwindigkeit 7.62 km/s
Subsatellitenpunkt -36.19°S, 2.54°W
Startdatum 20. Aug. 2024
Alter 1.3 years
Typ internet

Technische Details

Klassifizierung Payload
Masse 730.00 kg
Trockenmasse 700.00 kg
Gesamtmasse 730.00 kg
Länge 0.30 m
Durchmesser 4.10 m
Spannweite 29.00 m
Form Box + pan
Hersteller SPXS
Bus-Typ Starlink V2M
Phasenstatus In Orbit
Besitzer/Staat SPXS/US

Große Konstellationen

Loading constellations...